Flag Weather past 2 weeks in Kazan, Russia

Now
21 °F

Low clouds.


Feels Like: 12 °F
Forecast: 15 / 23 °F
Wind: 8 mph from Northwest

Location: Kazan'

Current Time: Nov 29, 2014 at 1:23:00 AM

Latest Report: Nov 29, 2014 at 1:00 AM


Visibility: N/A

Pressure: 30.69 "Hg

Humidity: 93%

Dew point: 19 °F

Location of KazanLocation

Historic Weather in Kazan — Graph

°F

Kazan temperature yesterday

Maximum temperature yesterday: 23 °F (at 9:00 AM)
Minimum temperature yesterday: 21 °F (at 12:00 AM)
Average temperature yesterday: 22 °F

Past Weeks' High & Low Weather Summary

 TemperatureHumidityPressure
High37 °F (Nov 14, 12:00 AM)100% (Nov 14, 12:00 AM)30.80 "Hg (Nov 14, 12:00 AM)
Low3 °F (Nov 24, 4:00 AM)62% (Nov 24, 2:00 PM)30.12 "Hg (Nov 22, 9:30 PM)
Average20 °F89%30.51 "Hg
* Reported Midnight between Nov 13 and Nov 14 — Midnight between Nov 28 and Nov 29, Kazan, Weather by CustomWeather, © 2014

Note: Actual official high and low records may vary slightly from our data, if they occured in-between our weather recording intervals... More about our weather records

Advertising

Kazan weather history for previous 24 hours

 ConditionsComfort  
Time TempWeatherWind HumidityBarometerVisibility
12:00 AM
Nov 29
21 °FLow clouds.8 mph93%30.69 "HgN/A
11:30 PM
Nov 28
21 °FLow clouds.8 mph93%30.69 "HgN/A
11:00 PM21 °FLow clouds.6 mph93%30.69 "HgN/A
10:30 PM21 °FLow clouds.6 mph93%30.69 "HgN/A
10:00 PM21 °FLow clouds.6 mph93%30.69 "HgN/A
9:30 PM21 °FLow clouds.6 mph93%30.66 "HgN/A
9:00 PM21 °FLow clouds.6 mph93%30.66 "HgN/A
8:30 PM21 °FLow clouds.6 mph93%30.66 "HgN/A
8:00 PM21 °FOvercast.6 mph93%30.66 "HgN/A
7:30 PM21 °FOvercast.6 mph93%30.66 "HgN/A
7:00 PM23 °FOvercast.6 mph86%30.66 "HgN/A
6:30 PM23 °FLight snow. Low clouds.6 mph86%30.66 "HgN/A
6:00 PM23 °FLight snow. Low clouds.6 mph86%30.66 "HgN/A
5:30 PM21 °FLight snow. Low clouds.6 mph93%30.66 "HgN/A
5:00 PM23 °FOvercast.6 mph86%30.66 "HgN/A
4:30 PM23 °FOvercast.3 mph86%30.66 "HgN/A
4:00 PM23 °FOvercast.6 mph86%30.66 "HgN/A
3:30 PM23 °FOvercast.6 mph86%30.66 "HgN/A
3:00 PM23 °FOvercast.6 mph86%30.66 "HgN/A
2:30 PM23 °FOvercast.6 mph86%30.63 "HgN/A
2:00 PM23 °FOvercast.6 mph86%30.63 "HgN/A
1:30 PM23 °FOvercast.3 mph93%30.63 "HgN/A
1:00 PM23 °FOvercast.3 mph86%30.63 "HgN/A
12:30 PM23 °FOvercast.3 mph93%30.63 "HgN/A
12:00 PM23 °FOvercast.6 mph93%30.63 "HgN/A
11:30 AM23 °FLow clouds.3 mph93%30.63 "HgN/A
11:00 AM23 °FLow clouds.3 mph93%30.63 "HgN/A
10:30 AM23 °FLow clouds.6 mph93%30.63 "HgN/A
10:00 AM23 °FLow clouds.3 mph93%30.63 "HgN/A
9:30 AM23 °FLow clouds.6 mph93%30.63 "HgN/A
9:00 AM23 °FLow clouds.3 mph93%30.63 "HgN/A
8:30 AM21 °FLow clouds.3 mph100%30.63 "HgN/A
8:00 AM21 °FLow clouds.3 mph100%30.60 "HgN/A
7:30 AM21 °FLow clouds.3 mph100%30.60 "HgN/A
7:00 AM21 °FLow clouds.3 mph100%30.60 "HgN/A
6:30 AM21 °FLow clouds.3 mph100%30.60 "HgN/A
6:00 AM21 °FLow clouds.6 mph100%30.60 "HgN/A
5:30 AM21 °FIce fog.3 mph100%30.60 "Hg3 mi
5:00 AM21 °FIce fog.3 mph100%30.60 "Hg2 mi
4:30 AM21 °FIce fog.3 mph100%30.57 "Hg2 mi
4:00 AM21 °FIce fog.3 mph100%30.57 "Hg2 mi
3:30 AM21 °FLight freezing rain. Ice fog.3 mph100%30.57 "Hg1 mi
3:00 AM21 °FLight freezing rain. Ice fog.3 mph100%30.57 "Hg1 mi
2:30 AM21 °FLight freezing rain. Ice fog.6 mph100%30.57 "Hg1 mi
2:00 AM21 °FLight freezing rain. Ice fog.6 mph100%30.57 "Hg1 mi
1:30 AM21 °FLight freezing rain. Ice fog.6 mph100%30.57 "Hg2 mi
1:00 AM21 °FLight freezing rain. Ice fog.3 mph100%30.57 "Hg2 mi
Weather by CustomWeather, © 2014

See weather overviewHow to use our weather pages